contact: severine.martini@mio.osupytheas.fr, dominique.lefevre@mio.osupytheas.fr
Project:EMSO Ligure-ouest http://www.emso-fr.org/EMSO-France
Sensor Optode, line 4330 Serial 272 
DOI : "https://doi.org/10.17882/97948" 
Title:EMSO Ligure Ouest : Data BathyDock capteur Optode - deploiement "2023-04-28"
Datetime,Profondeur,Latitude,Longitude,optode_type,serial,O2_concentration,O2_saturation,Temperature,Calibrated_Phase,Temp_Compensated_Phase,phase_blue_light,phase_red_light,Amplitude_blue_light,Amplitude_red_light,thermistor_bridge
time,m,degree_north,degree_east,1,1,umol.l-1,%,degree_C,degree,degree,degree,degree,mV,mV,mV
2024-01-02T00:00:07,2420,42.8014,5.9826,4330,272,186.209,57.059,13.332,36.045,36.625,41.215,4.590,295.8,545.4,290.5
2024-01-02T00:03:07,2420,42.8014,5.9826,4330,272,186.006,56.984,13.322,36.063,36.643,41.227,4.584,295.9,545.3,290.8
2024-01-02T00:06:08,2420,42.8014,5.9826,4330,272,186.321,57.075,13.318,36.045,36.625,41.212,4.587,295.9,545.3,291.0
2024-01-02T00:09:07,2420,42.8014,5.9826,4330,272,186.262,57.074,13.331,36.042,36.622,41.209,4.587,295.9,545.4,290.5
2024-01-02T00:12:08,2420,42.8014,5.9826,4330,272,186.199,57.035,13.316,36.054,36.634,41.216,4.583,295.9,545.4,291.0
2024-01-02T00:15:07,2420,42.8014,5.9826,4330,272,186.007,56.993,13.329,36.060,36.640,41.230,4.589,295.9,545.4,290.6
2024-01-02T00:18:08,2420,42.8014,5.9826,4330,272,186.277,57.059,13.316,36.049,36.629,41.217,4.588,295.9,545.4,291.0
2024-01-02T00:21:07,2420,42.8014,5.9826,4330,272,186.357,57.083,13.316,36.044,36.624,41.213,4.589,295.8,545.4,291.0
2024-01-02T00:24:07,2420,42.8014,5.9826,4330,272,186.357,57.080,13.313,36.045,36.625,41.208,4.583,295.8,545.4,291.1
2024-01-02T00:27:07,2420,42.8014,5.9826,4330,272,186.356,57.075,13.309,36.047,36.627,41.211,4.584,295.9,545.4,291.3
2024-01-02T00:30:08,2420,42.8014,5.9826,4330,272,186.232,57.046,13.316,36.051,36.631,41.211,4.580,295.8,545.5,291.0
2024-01-02T00:33:08,2420,42.8014,5.9826,4330,272,185.996,56.980,13.322,36.064,36.644,41.223,4.579,295.8,545.3,290.8
2024-01-02T00:36:07,2420,42.8014,5.9826,4330,272,186.197,57.048,13.326,36.049,36.629,41.222,4.593,295.9,545.4,290.7
2024-01-02T00:39:08,2420,42.8014,5.9826,4330,272,186.328,57.074,13.316,36.046,36.626,41.216,4.590,295.9,545.4,291.0
2024-01-02T00:42:07,2420,42.8014,5.9826,4330,272,186.196,57.042,13.322,36.051,36.631,41.221,4.590,295.8,545.4,290.8
2024-01-02T00:45:07,2420,42.8014,5.9826,4330,272,186.068,57.010,13.328,36.057,36.637,41.227,4.590,295.9,545.3,290.6
2024-01-02T00:48:07,2420,42.8014,5.9826,4330,272,186.323,57.078,13.320,36.044,36.624,41.214,4.590,295.9,545.3,290.9
2024-01-02T00:51:08,2420,42.8014,5.9826,4330,272,186.233,57.052,13.321,36.050,36.630,41.219,4.589,295.9,545.4,290.9
2024-01-02T00:54:07,2420,42.8014,5.9826,4330,272,186.068,56.997,13.317,36.061,36.641,41.223,4.582,295.9,545.5,291.0
2024-01-02T00:57:08,2420,42.8014,5.9826,4330,272,186.187,57.028,13.313,36.056,36.636,41.220,4.584,295.9,545.4,291.1
2024-01-02T01:00:07,2420,42.8014,5.9826,4330,272,186.347,57.080,13.315,36.045,36.625,41.215,4.590,295.8,545.4,291.1
2024-01-02T01:03:08,2420,42.8014,5.9826,4330,272,186.281,57.075,13.328,36.043,36.623,41.214,4.591,295.9,545.4,290.7
2024-01-02T01:06:07,2420,42.8014,5.9826,4330,272,186.215,57.043,13.318,36.052,36.632,41.221,4.589,295.9,545.5,291.0
2024-01-02T01:09:08,2420,42.8014,5.9826,4330,272,186.296,57.071,13.321,36.046,36.626,41.214,4.589,295.8,545.4,290.9
2024-01-02T01:12:07,2420,42.8014,5.9826,4330,272,185.972,56.973,13.322,36.066,36.646,41.228,4.582,295.9,545.3,290.8
2024-01-02T01:15:08,2420,42.8014,5.9826,4330,272,185.992,56.979,13.322,36.064,36.644,41.232,4.588,295.9,545.3,290.8
2024-01-02T01:18:07,2420,42.8014,5.9826,4330,272,186.202,57.037,13.317,36.054,36.634,41.220,4.586,295.9,545.3,291.0
2024-01-02T01:21:08,2420,42.8014,5.9826,4330,272,186.187,57.030,13.315,36.055,36.635,41.223,4.588,295.9,545.3,291.1
2024-01-02T01:24:07,2420,42.8014,5.9826,4330,272,186.144,57.037,13.331,36.051,36.631,41.218,4.588,295.8,545.3,290.6
2024-01-02T01:27:08,2420,42.8014,5.9826,4330,272,186.266,57.058,13.318,36.049,36.629,41.218,4.589,295.8,545.3,291.0
2024-01-02T01:30:07,2420,42.8014,5.9826,4330,272,186.313,57.071,13.317,36.046,36.626,41.214,4.588,295.8,545.4,291.0
2024-01-02T01:33:08,2420,42.8014,5.9826,4330,272,186.230,57.055,13.324,36.048,36.628,41.216,4.588,295.8,545.3,290.8
2024-01-02T01:36:07,2420,42.8014,5.9826,4330,272,186.348,57.090,13.324,36.041,36.621,41.207,4.587,295.9,545.3,290.8
2024-01-02T01:39:08,2420,42.8014,5.9826,4330,272,186.138,57.020,13.318,36.056,36.636,41.223,4.587,295.9,545.3,291.0
2024-01-02T01:42:07,2420,42.8014,5.9826,4330,272,186.303,57.068,13.317,36.046,36.626,41.217,4.591,295.9,545.4,291.0
2024-01-02T01:45:08,2420,42.8014,5.9826,4330,272,186.245,57.044,13.312,36.053,36.632,41.215,4.582,295.9,545.4,291.2
2024-01-02T01:48:07,2420,42.8014,5.9826,4330,272,186.233,57.046,13.316,36.051,36.631,41.220,4.588,295.8,545.4,291.0
2024-01-02T01:51:08,2420,42.8014,5.9826,4330,272,186.347,57.080,13.316,36.045,36.625,41.212,4.587,295.9,545.4,291.0
2024-01-02T01:54:07,2420,42.8014,5.9826,4330,272,186.151,57.019,13.315,36.058,36.638,41.227,4.589,295.8,545.4,291.1
2024-01-02T01:57:08,2420,42.8014,5.9826,4330,272,186.328,57.078,13.318,36.045,36.624,41.208,4.584,295.8,545.4,290.9
2024-01-02T02:00:07,2420,42.8014,5.9826,4330,272,186.117,57.015,13.320,36.058,36.638,41.221,4.583,295.8,545.4,290.9
2024-01-02T02:03:08,2420,42.8014,5.9826,4330,272,186.284,57.065,13.319,36.047,36.627,41.215,4.588,295.9,545.4,290.9
2024-01-02T02:06:07,2420,42.8014,5.9826,4330,272,186.299,57.063,13.314,36.048,36.628,41.215,4.586,295.9,545.5,291.1
2024-01-02T02:09:08,2420,42.8014,5.9826,4330,272,186.361,57.079,13.311,36.046,36.626,41.218,4.592,295.9,545.4,291.2
2024-01-02T02:12:07,2420,42.8014,5.9826,4330,272,186.195,57.030,13.313,36.056,36.635,41.221,4.586,295.9,545.4,291.1
2024-01-02T02:15:08,2420,42.8014,5.9826,4330,272,186.107,57.004,13.314,36.060,36.640,41.226,4.586,295.9,545.5,291.1
2024-01-02T02:18:07,2420,42.8014,5.9826,4330,272,186.303,57.070,13.319,36.045,36.625,41.214,4.588,295.9,545.4,290.9
2024-01-02T02:21:08,2420,42.8014,5.9826,4330,272,186.287,57.056,13.311,36.050,36.630,41.218,4.588,295.8,545.4,291.2
2024-01-02T02:24:07,2420,42.8014,5.9826,4330,272,186.647,57.171,13.315,36.026,36.606,41.191,4.585,295.8,545.3,291.1
2024-01-02T02:27:07,2420,42.8014,5.9826,4330,272,186.339,57.075,13.313,36.046,36.626,41.215,4.589,295.9,545.4,291.1
2024-01-02T02:30:08,2420,42.8014,5.9826,4330,272,186.274,57.062,13.319,36.047,36.627,41.215,4.588,295.9,545.4,290.9
2024-01-02T02:33:08,2420,42.8014,5.9826,4330,272,186.422,57.104,13.316,36.039,36.619,41.207,4.588,295.8,545.4,291.0
2024-01-02T02:36:07,2420,42.8014,5.9826,4330,272,186.371,57.082,13.311,36.045,36.625,41.215,4.590,295.8,545.4,291.2
2024-01-02T02:39:08,2420,42.8014,5.9826,4330,272,186.167,57.042,13.329,36.050,36.630,41.213,4.583,295.8,545.3,290.6
2024-01-02T02:42:07,2420,42.8014,5.9826,4330,272,186.090,57.000,13.315,36.062,36.642,41.228,4.587,295.8,545.3,291.1
2024-01-02T02:45:07,2420,42.8014,5.9826,4330,272,186.218,57.037,13.313,36.054,36.634,41.221,4.587,295.9,545.4,291.1
2024-01-02T02:48:08,2420,42.8014,5.9826,4330,272,186.379,57.084,13.311,36.045,36.625,41.210,4.586,295.8,545.3,291.2
2024-01-02T02:51:07,2420,42.8014,5.9826,4330,272,186.422,57.096,13.310,36.042,36.622,41.211,4.589,295.8,545.4,291.2
2024-01-02T02:54:08,2420,42.8014,5.9826,4330,272,186.384,57.085,13.311,36.044,36.624,41.210,4.586,295.8,545.4,291.2
2024-01-02T02:57:07,2420,42.8014,5.9826,4330,272,186.178,57.021,13.310,36.058,36.638,41.220,4.582,295.9,545.4,291.2
2024-01-02T03:00:08,2420,42.8014,5.9826,4330,272,186.471,57.110,13.309,36.040,36.620,41.209,4.590,295.8,545.5,291.2
2024-01-02T03:03:07,2420,42.8014,5.9826,4330,272,186.480,57.111,13.308,36.039,36.620,41.215,4.596,295.9,545.4,291.3
2024-01-02T03:06:07,2420,42.8014,5.9826,4330,272,186.293,57.054,13.308,36.052,36.632,41.216,4.584,295.8,545.4,291.3
2024-01-02T03:09:07,2420,42.8014,5.9826,4330,272,186.303,57.059,13.309,36.050,36.630,41.220,4.589,295.8,545.4,291.2
2024-01-02T03:12:08,2420,42.8014,5.9826,4330,272,186.484,57.112,13.308,36.040,36.620,41.210,4.590,295.8,545.5,291.3
2024-01-02T03:15:07,2420,42.8014,5.9826,4330,272,186.416,57.095,13.311,36.042,36.622,41.212,4.589,295.8,545.4,291.2
2024-01-02T03:18:08,2420,42.8014,5.9826,4330,272,186.307,57.059,13.309,36.050,36.630,41.219,4.588,295.8,545.4,291.3
2024-01-02T03:21:07,2420,42.8014,5.9826,4330,272,186.490,57.116,13.310,36.038,36.618,41.206,4.588,295.8,545.5,291.2
2024-01-02T03:24:08,2420,42.8014,5.9826,4330,272,186.676,57.172,13.309,36.026,36.606,41.202,4.596,295.9,545.4,291.3
2024-01-02T03:27:07,2420,42.8014,5.9826,4330,272,186.279,57.053,13.311,36.051,36.631,41.218,4.587,295.8,545.5,291.2
2024-01-02T03:30:08,2420,42.8014,5.9826,4330,272,186.396,57.086,13.309,36.044,36.624,41.213,4.588,295.7,545.4,291.3
2024-01-02T03:33:08,2420,42.8014,5.9826,4330,272,186.144,57.007,13.307,36.062,36.641,41.224,4.582,295.8,545.4,291.3
2024-01-02T03:36:07,2420,42.8014,5.9826,4330,272,186.471,57.109,13.309,36.039,36.619,41.206,4.587,295.8,545.5,291.3
2024-01-02T03:39:07,2420,42.8014,5.9826,4330,272,186.363,57.079,13.311,36.046,36.626,41.212,4.586,295.8,545.5,291.2
2024-01-02T03:42:08,2420,42.8014,5.9826,4330,272,186.472,57.111,13.310,36.039,36.619,41.205,4.586,295.8,545.4,291.2
2024-01-02T03:45:07,2420,42.8014,5.9826,4330,272,186.205,57.029,13.309,36.057,36.637,41.220,4.583,295.8,545.5,291.2
2024-01-02T03:48:08,2420,42.8014,5.9826,4330,272,186.472,57.110,13.309,36.039,36.619,41.203,4.583,295.8,545.4,291.3
2024-01-02T03:51:07,2420,42.8014,5.9826,4330,272,186.317,57.059,13.306,36.051,36.630,41.216,4.585,295.8,545.5,291.3
2024-01-02T03:54:08,2420,42.8014,5.9826,4330,272,186.586,57.143,13.308,36.033,36.613,41.202,4.589,295.7,545.4,291.3
2024-01-02T03:57:07,2420,42.8014,5.9826,4330,272,186.543,57.132,13.309,36.034,36.615,41.202,4.588,295.8,545.5,291.2
2024-01-02T04:00:07,2420,42.8014,5.9826,4330,272,186.406,57.091,13.310,36.043,36.623,41.212,4.589,295.7,545.4,291.2
2024-01-02T04:03:07,2420,42.8014,5.9826,4330,272,186.254,57.047,13.312,36.052,36.632,41.217,4.585,295.7,545.4,291.2
2024-01-02T04:06:08,2420,42.8014,5.9826,4330,272,186.493,57.115,13.308,36.039,36.619,41.202,4.583,295.8,545.4,291.3
2024-01-02T04:09:07,2420,42.8014,5.9826,4330,272,186.318,57.065,13.311,36.049,36.629,41.216,4.587,295.8,545.4,291.2
2024-01-02T04:12:08,2420,42.8014,5.9826,4330,272,186.387,57.088,13.312,36.044,36.624,41.208,4.585,295.8,545.4,291.2
2024-01-02T04:15:07,2420,42.8014,5.9826,4330,272,186.272,57.053,13.312,36.051,36.631,41.219,4.588,295.7,545.4,291.1
2024-01-02T04:18:07,2420,42.8014,5.9826,4330,272,186.275,57.051,13.310,36.052,36.632,41.214,4.582,295.7,545.5,291.2
2024-01-02T04:21:08,2420,42.8014,5.9826,4330,272,186.609,57.152,13.309,36.030,36.610,41.200,4.590,295.8,545.4,291.3
2024-01-02T04:24:07,2420,42.8014,5.9826,4330,272,186.457,57.108,13.311,36.039,36.619,41.209,4.590,295.8,545.5,291.2
2024-01-02T04:27:08,2420,42.8014,5.9826,4330,272,186.394,57.087,13.309,36.044,36.624,41.214,4.590,295.8,545.5,291.2
2024-01-02T04:30:07,2420,42.8014,5.9826,4330,272,186.168,57.015,13.308,36.060,36.640,41.225,4.585,295.8,545.5,291.3
2024-01-02T04:33:07,2420,42.8014,5.9826,4330,272,186.631,57.161,13.311,36.029,36.609,41.194,4.585,295.8,545.5,291.2
2024-01-02T04:36:07,2420,42.8014,5.9826,4330,272,186.476,57.112,13.309,36.039,36.619,41.210,4.591,295.8,545.5,291.3
2024-01-02T04:39:08,2420,42.8014,5.9826,4330,272,186.401,57.087,13.308,36.045,36.625,41.210,4.586,295.8,545.5,291.3
2024-01-02T04:42:07,2420,42.8014,5.9826,4330,272,186.533,57.132,13.312,36.035,36.615,41.201,4.586,295.7,545.4,291.2
2024-01-02T04:45:08,2420,42.8014,5.9826,4330,272,186.457,57.105,13.309,36.041,36.621,41.211,4.590,295.8,545.4,291.3
2024-01-02T04:48:07,2420,42.8014,5.9826,4330,272,186.530,57.128,13.309,36.035,36.616,41.202,4.586,295.8,545.4,291.3
2024-01-02T04:51:08,2420,42.8014,5.9826,4330,272,186.694,57.177,13.308,36.025,36.606,41.196,4.591,295.8,545.4,291.3
2024-01-02T04:54:07,2420,42.8014,5.9826,4330,272,186.417,57.097,13.312,36.041,36.621,41.208,4.587,295.8,545.3,291.2
2024-01-02T04:57:08,2420,42.8014,5.9826,4330,272,186.100,56.999,13.311,36.062,36.642,41.227,4.585,295.8,545.3,291.2
2024-01-02T05:00:07,2420,42.8014,5.9826,4330,272,186.483,57.115,13.311,36.038,36.618,41.208,4.590,295.8,545.4,291.2
2024-01-02T05:03:07,2420,42.8014,5.9826,4330,272,186.561,57.138,13.309,36.034,36.614,41.209,4.595,295.8,545.5,291.2
2024-01-02T05:06:07,2420,42.8014,5.9826,4330,272,186.516,57.124,13.310,36.037,36.617,41.205,4.588,295.8,545.4,291.2
2024-01-02T05:09:08,2420,42.8014,5.9826,4330,272,186.312,57.061,13.309,36.050,36.630,41.213,4.583,295.7,545.5,291.2
2024-01-02T05:12:07,2420,42.8014,5.9826,4330,272,186.378,57.083,13.311,36.045,36.625,41.212,4.587,295.8,545.4,291.2
2024-01-02T05:15:08,2420,42.8014,5.9826,4330,272,186.474,57.111,13.310,36.039,36.619,41.212,4.592,295.7,545.4,291.2
2024-01-02T05:18:07,2420,42.8014,5.9826,4330,272,186.628,57.157,13.308,36.030,36.610,41.202,4.592,295.8,545.4,291.3
2024-01-02T05:21:08,2420,42.8014,5.9826,4330,272,186.407,57.090,13.309,36.044,36.624,41.212,4.588,295.8,545.4,291.3
2024-01-02T05:24:07,2420,42.8014,5.9826,4330,272,186.342,57.071,13.310,36.047,36.627,41.215,4.588,295.7,545.4,291.2
2024-01-02T05:27:08,2420,42.8014,5.9826,4330,272,186.453,57.105,13.310,36.040,36.620,41.203,4.582,295.8,545.4,291.2
2024-01-02T05:30:07,2420,42.8014,5.9826,4330,272,186.383,57.086,13.312,36.044,36.624,41.211,4.587,295.8,545.4,291.2
2024-01-02T05:33:08,2420,42.8014,5.9826,4330,272,186.400,57.091,13.312,36.043,36.623,41.209,4.586,295.7,545.4,291.2
2024-01-02T05:36:07,2420,42.8014,5.9826,4330,272,186.159,57.015,13.310,36.059,36.639,41.222,4.583,295.7,545.4,291.2
2024-01-02T05:39:08,2420,42.8014,5.9826,4330,272,186.539,57.133,13.311,36.034,36.614,41.204,4.590,295.7,545.4,291.2
2024-01-02T05:42:07,2420,42.8014,5.9826,4330,272,186.801,57.215,13.312,36.016,36.596,41.187,4.591,295.7,545.4,291.2
2024-01-02T05:45:08,2420,42.8014,5.9826,4330,272,186.537,57.135,13.313,36.033,36.613,41.200,4.587,295.7,545.4,291.1
2024-01-02T05:48:07,2420,42.8014,5.9826,4330,272,186.409,57.089,13.308,36.045,36.625,41.216,4.591,295.9,545.4,291.3
2024-01-02T05:51:07,2420,42.8014,5.9826,4330,272,186.510,57.121,13.308,36.037,36.617,41.205,4.588,295.8,545.4,291.3
2024-01-02T05:54:08,2420,42.8014,5.9826,4330,272,186.642,57.165,13.311,36.028,36.608,41.193,4.585,295.7,545.4,291.2
2024-01-02T05:57:07,2420,42.8014,5.9826,4330,272,186.644,57.168,13.313,36.027,36.607,41.199,4.593,295.7,545.5,291.1
2024-01-02T06:00:08,2420,42.8014,5.9826,4330,272,186.380,57.083,13.310,36.044,36.624,41.207,4.583,295.7,545.4,291.2
2024-01-02T06:03:08,2420,42.8014,5.9826,4330,272,186.333,57.072,13.312,36.047,36.627,41.212,4.585,295.7,545.4,291.1
2024-01-02T06:06:07,2420,42.8014,5.9826,4330,272,186.657,57.170,13.312,36.026,36.606,41.192,4.585,295.7,545.4,291.2
2024-01-02T06:09:07,2420,42.8014,5.9826,4330,272,186.591,57.144,13.307,36.033,36.613,41.198,4.586,295.7,545.5,291.3
2024-01-02T06:12:08,2420,42.8014,5.9826,4330,272,186.630,57.154,13.306,36.030,36.611,41.199,4.589,295.8,545.5,291.4
2024-01-02T06:15:07,2420,42.8014,5.9826,4330,272,186.595,57.145,13.307,36.033,36.613,41.201,4.588,295.7,545.4,291.3
2024-01-02T06:18:08,2420,42.8014,5.9826,4330,272,186.613,57.153,13.309,36.030,36.610,41.199,4.589,295.8,545.4,291.3
2024-01-02T06:21:07,2420,42.8014,5.9826,4330,272,186.450,57.103,13.309,36.041,36.621,41.210,4.589,295.7,545.4,291.3
2024-01-02T06:24:08,2420,42.8014,5.9826,4330,272,186.611,57.152,13.309,36.031,36.611,41.198,4.587,295.8,545.5,291.3
2024-01-02T06:27:07,2420,42.8014,5.9826,4330,272,186.664,57.172,13.311,36.026,36.606,41.189,4.583,295.7,545.4,291.2
2024-01-02T06:30:07,2420,42.8014,5.9826,4330,272,186.471,57.109,13.308,36.040,36.620,41.209,4.589,295.7,545.4,291.3
2024-01-02T06:33:07,2420,42.8014,5.9826,4330,272,186.621,57.157,13.310,36.029,36.609,41.200,4.590,295.8,545.4,291.2
2024-01-02T06:36:08,2420,42.8014,5.9826,4330,272,186.656,57.169,13.311,36.027,36.607,41.197,4.590,295.7,545.4,291.2
2024-01-02T06:39:07,2420,42.8014,5.9826,4330,272,186.392,57.085,13.309,36.045,36.625,41.213,4.588,295.7,545.5,291.3
2024-01-02T06:42:08,2420,42.8014,5.9826,4330,272,186.414,57.094,13.311,36.043,36.623,41.211,4.589,295.7,545.4,291.2
2024-01-02T06:45:07,2420,42.8014,5.9826,4330,272,186.698,57.179,13.309,36.025,36.605,41.194,4.590,295.8,545.5,291.3
2024-01-02T06:48:08,2420,42.8014,5.9826,4330,272,186.373,57.083,13.312,36.045,36.625,41.212,4.587,295.8,545.4,291.2
2024-01-02T06:51:07,2420,42.8014,5.9826,4330,272,186.466,57.108,13.309,36.039,36.619,41.206,4.587,295.8,545.5,291.3
2024-01-02T06:54:07,2420,42.8014,5.9826,4330,272,186.462,57.106,13.309,36.040,36.620,41.207,4.587,295.8,545.5,291.3
2024-01-02T06:57:07,2420,42.8014,5.9826,4330,272,186.525,57.127,13.310,36.036,36.616,41.203,4.587,295.7,545.4,291.2
2024-01-02T07:00:07,2420,42.8014,5.9826,4330,272,186.632,57.162,13.312,36.028,36.608,41.194,4.586,295.8,545.4,291.2
2024-01-02T07:03:07,2420,42.8014,5.9826,4330,272,186.352,57.073,13.309,36.048,36.628,41.219,4.592,295.7,545.4,291.3
2024-01-02T07:06:08,2420,42.8014,5.9826,4330,272,186.385,57.084,13.309,36.045,36.625,41.211,4.586,295.8,545.4,291.3
2024-01-02T07:09:07,2420,42.8014,5.9826,4330,272,186.220,57.033,13.309,36.056,36.636,41.221,4.585,295.8,545.4,291.3
2024-01-02T07:12:07,2420,42.8014,5.9826,4330,272,186.523,57.125,13.309,36.036,36.617,41.204,4.587,295.7,545.5,291.3
2024-01-02T07:15:07,2420,42.8014,5.9826,4330,272,186.472,57.110,13.309,36.040,36.620,41.208,4.589,295.8,545.5,291.3
2024-01-02T07:18:08,2420,42.8014,5.9826,4330,272,186.670,57.172,13.310,36.026,36.606,41.195,4.589,295.8,545.3,291.2
2024-01-02T07:21:08,2420,42.8014,5.9826,4330,272,186.466,57.110,13.311,36.039,36.619,41.204,4.585,295.8,545.4,291.2
2024-01-02T07:24:07,2420,42.8014,5.9826,4330,272,186.301,57.058,13.309,36.051,36.631,41.215,4.584,295.8,545.4,291.3
2024-01-02T07:27:08,2420,42.8014,5.9826,4330,272,186.460,57.109,13.311,36.039,36.619,41.207,4.588,295.8,545.4,291.2
2024-01-02T07:30:07,2420,42.8014,5.9826,4330,272,186.407,57.095,13.312,36.042,36.622,41.208,4.586,295.7,545.4,291.1
2024-01-02T07:33:07,2420,42.8014,5.9826,4330,272,186.249,57.044,13.311,36.053,36.633,41.222,4.588,295.7,545.4,291.2
2024-01-02T07:36:07,2420,42.8014,5.9826,4330,272,186.517,57.129,13.313,36.034,36.615,41.206,4.592,295.8,545.4,291.1
2024-01-02T07:39:07,2420,42.8014,5.9826,4330,272,186.396,57.090,13.312,36.044,36.624,41.212,4.589,295.7,545.4,291.2
2024-01-02T07:42:08,2420,42.8014,5.9826,4330,272,186.257,57.044,13.309,36.054,36.634,41.220,4.587,295.7,545.4,291.3
2024-01-02T07:45:07,2420,42.8014,5.9826,4330,272,186.574,57.140,13.308,36.034,36.614,41.200,4.586,295.8,545.4,291.3
2024-01-02T07:48:08,2420,42.8014,5.9826,4330,272,186.544,57.136,13.312,36.033,36.613,41.199,4.586,295.7,545.4,291.2
2024-01-02T07:51:07,2420,42.8014,5.9826,4330,272,186.555,57.134,13.308,36.035,36.615,41.205,4.590,295.7,545.4,291.3
2024-01-02T07:54:08,2420,42.8014,5.9826,4330,272,186.342,57.069,13.308,36.048,36.628,41.211,4.583,295.7,545.4,291.3
2024-01-02T07:57:07,2420,42.8014,5.9826,4330,272,186.558,57.136,13.309,36.034,36.614,41.199,4.585,295.7,545.4,291.3
2024-01-02T08:00:07,2420,42.8014,5.9826,4330,272,186.688,57.174,13.308,36.026,36.606,41.198,4.592,295.7,545.5,291.3
2024-01-02T08:03:07,2420,42.8014,5.9826,4330,272,186.324,57.064,13.309,36.049,36.629,41.215,4.586,295.8,545.4,291.3
2024-01-02T08:06:08,2420,42.8014,5.9826,4330,272,186.431,57.098,13.309,36.042,36.622,41.211,4.589,295.8,545.5,291.3
2024-01-02T08:09:07,2420,42.8014,5.9826,4330,272,186.446,57.102,13.309,36.041,36.621,41.209,4.588,295.8,545.4,291.3
2024-01-02T08:12:07,2420,42.8014,5.9826,4330,272,186.441,57.104,13.312,36.040,36.620,41.208,4.588,295.7,545.4,291.2
2024-01-02T08:15:07,2420,42.8014,5.9826,4330,272,186.544,57.131,13.309,36.035,36.615,41.204,4.589,295.8,545.4,291.3
2024-01-02T08:18:08,2420,42.8014,5.9826,4330,272,186.453,57.103,13.308,36.041,36.621,41.210,4.589,295.7,545.4,291.3
2024-01-02T08:21:07,2420,42.8014,5.9826,4330,272,186.500,57.119,13.309,36.038,36.618,41.210,4.592,295.8,545.4,291.3
2024-01-02T08:24:08,2420,42.8014,5.9826,4330,272,186.639,57.162,13.309,36.028,36.608,41.201,4.592,295.7,545.4,291.2
2024-01-02T08:27:07,2420,42.8014,5.9826,4330,272,186.263,57.046,13.309,36.053,36.633,41.217,4.585,295.7,545.4,291.3
2024-01-02T08:30:08,2420,42.8014,5.9826,4330,272,186.355,57.079,13.313,36.045,36.625,41.216,4.590,295.7,545.4,291.1
2024-01-02T08:33:07,2420,42.8014,5.9826,4330,272,186.488,57.119,13.312,36.037,36.617,41.204,4.587,295.7,545.4,291.2
2024-01-02T08:36:08,2420,42.8014,5.9826,4330,272,186.767,57.201,13.310,36.020,36.600,41.189,4.589,295.8,545.4,291.2
2024-01-02T08:39:07,2420,42.8014,5.9826,4330,272,186.373,57.083,13.311,36.045,36.625,41.213,4.588,295.7,545.4,291.2
2024-01-02T08:42:08,2420,42.8014,5.9826,4330,272,186.395,57.090,13.312,36.044,36.624,41.212,4.589,295.7,545.4,291.2
2024-01-02T08:45:07,2420,42.8014,5.9826,4330,272,186.484,57.116,13.310,36.038,36.618,41.209,4.591,295.7,545.4,291.2
2024-01-02T08:48:08,2420,42.8014,5.9826,4330,272,186.384,57.088,13.313,36.043,36.623,41.209,4.585,295.7,545.4,291.1
2024-01-02T08:51:07,2420,42.8014,5.9826,4330,272,186.556,57.138,13.310,36.033,36.614,41.202,4.588,295.7,545.3,291.2
2024-01-02T08:54:08,2420,42.8014,5.9826,4330,272,186.506,57.123,13.311,36.037,36.617,41.204,4.588,295.8,545.4,291.2
2024-01-02T08:57:07,2420,42.8014,5.9826,4330,272,186.464,57.109,13.310,36.039,36.619,41.204,4.585,295.7,545.4,291.2
2024-01-02T09:00:08,2420,42.8014,5.9826,4330,272,186.519,57.133,13.315,36.033,36.613,41.206,4.593,295.7,545.4,291.1
2024-01-02T09:03:07,2420,42.8014,5.9826,4330,272,186.368,57.082,13.312,36.045,36.625,41.210,4.585,295.7,545.4,291.2
2024-01-02T09:06:08,2420,42.8014,5.9826,4330,272,186.244,57.045,13.313,36.053,36.633,41.219,4.586,295.8,545.3,291.1
2024-01-02T09:09:07,2420,42.8014,5.9826,4330,272,186.245,57.042,13.310,36.053,36.633,41.221,4.588,295.7,545.5,291.2
2024-01-02T09:12:08,2420,42.8014,5.9826,4330,272,186.619,57.160,13.313,36.028,36.608,41.201,4.593,295.8,545.4,291.1
2024-01-02T09:15:07,2420,42.8014,5.9826,4330,272,186.576,57.147,13.313,36.031,36.611,41.194,4.583,295.8,545.4,291.1
2024-01-02T09:18:07,2420,42.8014,5.9826,4330,272,186.519,57.126,13.310,36.036,36.616,41.203,4.587,295.7,545.4,291.2
2024-01-02T09:21:08,2420,42.8014,5.9826,4330,272,186.421,57.097,13.311,36.042,36.622,41.212,4.590,295.8,545.4,291.2
2024-01-02T09:24:07,2420,42.8014,5.9826,4330,272,186.691,57.181,13.312,36.024,36.604,41.191,4.587,295.8,545.4,291.2
2024-01-02T09:27:08,2420,42.8014,5.9826,4330,272,186.331,57.069,13.311,36.048,36.628,41.211,4.583,295.7,545.4,291.2
2024-01-02T09:30:07,2420,42.8014,5.9826,4330,272,186.376,57.081,13.310,36.046,36.626,41.213,4.587,295.8,545.4,291.2
2024-01-02T09:33:07,2420,42.8014,5.9826,4330,272,186.339,57.073,13.312,36.046,36.626,41.213,4.586,295.8,545.4,291.2
2024-01-02T09:36:07,2420,42.8014,5.9826,4330,272,186.604,57.154,13.312,36.029,36.609,41.197,4.587,295.7,545.4,291.2
2024-01-02T09:39:07,2420,42.8014,5.9826,4330,272,186.403,57.093,13.312,36.043,36.623,41.211,4.588,295.8,545.4,291.2
2024-01-02T09:42:08,2420,42.8014,5.9826,4330,272,186.503,57.124,13.313,36.036,36.616,41.204,4.589,295.8,545.4,291.1
2024-01-02T09:45:07,2420,42.8014,5.9826,4330,272,186.531,57.134,13.313,36.033,36.613,41.204,4.590,295.7,545.4,291.1
2024-01-02T09:48:08,2420,42.8014,5.9826,4330,272,186.508,57.124,13.312,36.036,36.616,41.206,4.590,295.8,545.3,291.2
2024-01-02T09:51:07,2420,42.8014,5.9826,4330,272,186.540,57.134,13.311,36.034,36.614,41.201,4.587,295.8,545.5,291.2
2024-01-02T09:54:07,2420,42.8014,5.9826,4330,272,186.326,57.073,13.315,36.046,36.626,41.212,4.586,295.8,545.4,291.1
2024-01-02T09:57:07,2420,42.8014,5.9826,4330,272,186.061,56.994,13.317,36.062,36.642,41.225,4.583,295.6,545.3,291.0
2024-01-02T10:00:07,2420,42.8014,5.9826,4330,272,186.379,57.088,13.315,36.042,36.622,41.209,4.586,295.8,545.4,291.1